SWR971 LSZH-LEPA

Flight info

Callsign SWR971
Flight time 1h 26m
Altitude 33000
Route VEBIT T50 ROTOS Z669 ULMES DCT VADAR/N0429F390 DCT GEVEA DCT INCUS DCT BALSI DCT RETNO DCT TUPOX DCT MTG DCT DIVKO DCT VATIR DCT PIVUS DCT BODEQ DCT VERSO L129 LUNIK
Aircraft A20N/M-SDE2E3FGHIRWXY/LB1

Departure

Time 2026-04-26 08:52
Airport Zürich Airport (LSZH)

Arrival

Time 2026-04-26 10:19
Airport Palma de Mallorca Airport (LEPA)
Time Latitude Longitude Altitude Speed Heading
2026-04-26 08:27 47.45413 8.56002 1404 ft 0 kts 186°
2026-04-26 08:46 47.45437 8.56005 1401 ft 4 kts 181°
2026-04-26 08:46 47.45464 8.56003 1403 ft 4 kts 169°
2026-04-26 08:47 47.45487 8.55990 1406 ft 4 kts 124°
2026-04-26 08:47 47.45492 8.55978 1407 ft 0 kts 96°
2026-04-26 08:47 47.45492 8.55977 1407 ft 0 kts 96°
2026-04-26 08:49 47.45490 8.56006 1398 ft 6 kts 96°
2026-04-26 08:50 47.45480 8.56134 1397 ft 17 kts 96°
2026-04-26 08:50 47.45517 8.56286 1400 ft 18 kts 51°
2026-04-26 08:50 47.45587 8.56418 1403 ft 16 kts 55°
2026-04-26 08:50 47.45587 8.56584 1397 ft 18 kts 95°
2026-04-26 08:51 47.45582 8.57004 1405 ft 13 kts 37°
2026-04-26 08:51 47.45665 8.56974 1401 ft 14 kts 285°
2026-04-26 08:51 47.45667 8.56935 1398 ft 4 kts 274°
2026-04-26 08:52 47.45690 8.56625 1400 ft 73 kts 277°
2026-04-26 08:52 47.45770 8.55488 1396 ft 146 kts 276°
2026-04-26 08:52 47.45875 8.53834 1828 ft 170 kts 277°
2026-04-26 08:52 47.45991 8.51962 2385 ft 198 kts 276°
2026-04-26 08:53 47.46106 8.49780 2999 ft 223 kts 274°
2026-04-26 08:53 47.46114 8.47389 3751 ft 243 kts 264°
2026-04-26 08:53 47.45503 8.44975 4438 ft 265 kts 233°
2026-04-26 08:53 47.44202 8.42957 5442 ft 276 kts 219°
2026-04-26 08:54 47.42757 8.41104 6796 ft 274 kts 221°
2026-04-26 08:54 47.41391 8.39111 8103 ft 281 kts 227°
2026-04-26 08:54 47.40108 8.36889 9406 ft 287 kts 232°
2026-04-26 08:54 47.38910 8.34499 10696 ft 294 kts 239°
2026-04-26 08:55 47.37881 8.31764 11528 ft 316 kts 244°
2026-04-26 08:55 47.36833 8.28764 12233 ft 339 kts 245°
2026-04-26 08:55 47.35742 8.25625 13334 ft 346 kts 245°
2026-04-26 08:55 47.34629 8.22456 14523 ft 350 kts 244°
2026-04-26 08:56 47.33494 8.19249 15607 ft 355 kts 244°
2026-04-26 08:56 47.32354 8.16044 16659 ft 359 kts 244°
2026-04-26 08:56 47.31185 8.12761 17673 ft 366 kts 243°
2026-04-26 08:56 47.29991 8.09397 18601 ft 374 kts 243°
2026-04-26 08:57 47.28775 8.05976 19563 ft 376 kts 243°
2026-04-26 08:57 47.27561 8.02567 20581 ft 377 kts 243°
2026-04-26 08:57 47.26412 7.99065 21444 ft 382 kts 248°
2026-04-26 08:57 47.25414 7.95464 22243 ft 389 kts 248°
2026-04-26 08:58 47.24376 7.91723 23200 ft 391 kts 248°
2026-04-26 08:58 47.23339 7.88003 24079 ft 394 kts 248°
2026-04-26 08:58 47.22285 7.84237 24752 ft 400 kts 248°
2026-04-26 08:58 47.21219 7.80438 25461 ft 404 kts 248°
2026-04-26 08:59 47.20138 7.76609 26190 ft 407 kts 247°
2026-04-26 08:59 47.18866 7.72875 26868 ft 411 kts 240°
2026-04-26 08:59 47.17288 7.69338 27550 ft 415 kts 234°
2026-04-26 08:59 47.15489 7.65996 28205 ft 418 kts 232°
2026-04-26 09:00 47.13663 7.62635 28850 ft 421 kts 232°
2026-04-26 09:00 47.11851 7.59290 29375 ft 426 kts 232°
2026-04-26 09:00 47.10000 7.55868 29956 ft 429 kts 232°
2026-04-26 09:00 47.08133 7.52421 30516 ft 432 kts 232°
2026-04-26 09:01 47.06256 7.48957 31046 ft 434 kts 232°
2026-04-26 09:01 47.04372 7.45487 31607 ft 435 kts 232°
2026-04-26 09:01 47.02488 7.42020 32295 ft 433 kts 232°
2026-04-26 09:01 47.00613 7.38584 32941 ft 428 kts 232°
2026-04-26 09:02 46.98763 7.35208 33158 ft 423 kts 232°
2026-04-26 09:02 46.95075 7.28490 33187 ft 423 kts 232°
2026-04-26 09:03 46.91374 7.21742 33188 ft 425 kts 232°
2026-04-26 09:03 46.87671 7.14994 33212 ft 425 kts 232°
2026-04-26 09:04 46.83990 7.08307 33212 ft 425 kts 232°
2026-04-26 09:04 46.80273 7.01574 33212 ft 425 kts 232°
2026-04-26 09:05 46.76559 6.94861 33210 ft 425 kts 232°
2026-04-26 09:05 46.72838 6.88152 33209 ft 425 kts 232°
2026-04-26 09:06 46.69113 6.81452 33225 ft 425 kts 232°
2026-04-26 09:06 46.65378 6.74830 33207 ft 425 kts 229°
2026-04-26 09:07 46.61330 6.68534 33201 ft 425 kts 228°
2026-04-26 09:07 46.57284 6.62250 33195 ft 426 kts 228°
2026-04-26 09:08 46.53229 6.55966 33212 ft 426 kts 227°
2026-04-26 09:08 46.49171 6.49692 33192 ft 426 kts 227°
2026-04-26 09:09 46.45115 6.43438 33194 ft 425 kts 227°
2026-04-26 09:09 46.41059 6.37198 33188 ft 425 kts 227°
2026-04-26 09:10 46.37024 6.31004 33176 ft 425 kts 227°
2026-04-26 09:10 46.32963 6.24784 33177 ft 425 kts 227°
2026-04-26 09:11 46.28892 6.18570 33177 ft 425 kts 226°
2026-04-26 09:11 46.24057 6.13689 33177 ft 429 kts 205°
2026-04-26 09:12 46.19264 6.11828 33173 ft 433 kts 191°
2026-04-26 09:12 46.13297 6.10527 33176 ft 433 kts 191°
2026-04-26 09:13 46.07325 6.09205 33178 ft 434 kts 191°
2026-04-26 09:13 46.01348 6.07881 33185 ft 435 kts 191°
2026-04-26 09:14 45.95360 6.06559 33184 ft 435 kts 191°
2026-04-26 09:14 45.89377 6.05238 33186 ft 435 kts 191°
2026-04-26 09:15 45.83392 6.03920 33188 ft 435 kts 191°
2026-04-26 09:15 45.77433 6.02603 33190 ft 435 kts 191°
2026-04-26 09:16 45.71449 6.01281 33190 ft 435 kts 191°
2026-04-26 09:16 45.65459 5.99963 33163 ft 435 kts 191°
2026-04-26 09:17 45.59478 5.98649 33162 ft 435 kts 191°
2026-04-26 09:17 45.53499 5.97339 33162 ft 435 kts 191°
2026-04-26 09:18 45.47518 5.96006 33162 ft 434 kts 193°
2026-04-26 09:18 45.41637 5.94181 33150 ft 432 kts 195°
2026-04-26 09:19 45.35776 5.92341 33161 ft 435 kts 195°
2026-04-26 09:19 45.29873 5.90498 33159 ft 434 kts 195°
2026-04-26 09:20 45.23959 5.88658 33167 ft 435 kts 195°
2026-04-26 09:20 45.18027 5.86820 33164 ft 436 kts 195°
2026-04-26 09:21 45.12099 5.84985 33159 ft 436 kts 195°
2026-04-26 09:21 45.06163 5.83157 33157 ft 436 kts 195°
2026-04-26 09:22 45.00285 5.81343 33133 ft 435 kts 195°
2026-04-26 09:22 44.94354 5.79516 33136 ft 436 kts 195°
2026-04-26 09:23 44.88423 5.77694 33132 ft 436 kts 195°
2026-04-26 09:23 44.82490 5.75876 33118 ft 437 kts 195°
2026-04-26 09:24 44.76547 5.74060 33123 ft 438 kts 195°
2026-04-26 09:24 44.70565 5.72236 33127 ft 438 kts 195°
2026-04-26 09:25 44.64597 5.70418 33134 ft 439 kts 195°
2026-04-26 09:25 44.58631 5.68605 33138 ft 439 kts 195°
2026-04-26 09:26 44.52653 5.66793 33133 ft 439 kts 195°
2026-04-26 09:26 44.46667 5.64981 33117 ft 439 kts 195°
2026-04-26 09:27 44.40702 5.63181 33117 ft 439 kts 195°
2026-04-26 09:27 44.34902 5.60704 33112 ft 435 kts 204°
2026-04-26 09:28 44.29185 5.57538 33115 ft 454 kts 204°
2026-04-26 09:28 44.28207 5.56999 33102 ft 456 kts 204°
2026-04-26 09:29 44.24424 5.54933 33113 ft 459 kts 204°
2026-04-26 09:29 44.18484 5.51683 33112 ft 459 kts 204°
2026-04-26 09:30 44.12535 5.48435 33117 ft 459 kts 204°
2026-04-26 09:30 44.06572 5.45188 33117 ft 461 kts 204°
2026-04-26 09:31 44.00602 5.41949 33119 ft 461 kts 204°
2026-04-26 09:31 43.94626 5.38712 33121 ft 461 kts 204°
2026-04-26 09:32 43.88651 5.35478 33126 ft 463 kts 204°
2026-04-26 09:32 43.82636 5.32231 33125 ft 463 kts 204°
2026-04-26 09:33 43.76637 5.29002 33128 ft 463 kts 204°
2026-04-26 09:33 43.70635 5.25775 33120 ft 463 kts 203°
2026-04-26 09:34 43.64618 5.22546 33127 ft 464 kts 203°
2026-04-26 09:34 43.58602 5.19326 33127 ft 464 kts 203°
2026-04-26 09:35 43.52580 5.16111 33131 ft 464 kts 203°
2026-04-26 09:35 43.46554 5.12899 33130 ft 464 kts 203°
2026-04-26 09:36 43.40543 5.09659 33130 ft 463 kts 206°
2026-04-26 09:36 43.34982 5.05293 33132 ft 460 kts 216°
2026-04-26 09:37 43.29738 5.00310 33130 ft 463 kts 216°
2026-04-26 09:37 43.24434 4.95308 33130 ft 462 kts 216°
2026-04-26 09:38 43.19147 4.90344 33133 ft 460 kts 216°
2026-04-26 09:38 43.13862 4.85395 33131 ft 460 kts 216°
2026-04-26 09:39 43.08559 4.80439 33138 ft 462 kts 216°
2026-04-26 09:39 43.03096 4.75761 33135 ft 463 kts 211°
2026-04-26 09:40 42.97451 4.71491 33136 ft 463 kts 211°
2026-04-26 09:40 42.91817 4.67226 33131 ft 464 kts 211°
2026-04-26 09:41 42.86188 4.62971 33140 ft 465 kts 211°
2026-04-26 09:41 42.80525 4.58699 33135 ft 465 kts 211°
2026-04-26 09:42 42.74872 4.54445 33137 ft 463 kts 211°
2026-04-26 09:42 42.69228 4.50206 33140 ft 463 kts 211°
2026-04-26 09:43 42.63583 4.45976 33138 ft 463 kts 210°
2026-04-26 09:43 42.57943 4.41756 33142 ft 463 kts 210°
2026-04-26 09:44 42.52285 4.37533 33138 ft 464 kts 210°
2026-04-26 09:44 42.46608 4.33305 33138 ft 465 kts 210°
2026-04-26 09:45 42.40932 4.29086 33147 ft 466 kts 210°
2026-04-26 09:45 42.35257 4.24877 33136 ft 465 kts 210°
2026-04-26 09:46 42.29562 4.20660 33146 ft 468 kts 210°
2026-04-26 09:46 42.23855 4.16445 33149 ft 467 kts 210°
2026-04-26 09:47 42.18150 4.12240 33151 ft 467 kts 210°
2026-04-26 09:47 42.12446 4.08046 33147 ft 467 kts 210°
2026-04-26 09:48 42.06718 4.03846 33151 ft 468 kts 210°
2026-04-26 09:48 42.01032 3.99686 33154 ft 468 kts 210°
2026-04-26 09:49 41.95285 3.95553 33154 ft 469 kts 206°
2026-04-26 09:49 41.89126 3.92646 33154 ft 472 kts 194°
2026-04-26 09:50 41.82656 3.91102 33161 ft 472 kts 191°
2026-04-26 09:50 41.76178 3.89621 33161 ft 472 kts 191°
2026-04-26 09:51 41.69709 3.88129 33165 ft 472 kts 191°
2026-04-26 09:51 41.63237 3.86639 33164 ft 472 kts 191°
2026-04-26 09:52 41.56762 3.85151 33166 ft 472 kts 190°
2026-04-26 09:52 41.47062 3.82929 33164 ft 471 kts 190°
2026-04-26 09:53 41.40619 3.81455 33165 ft 471 kts 190°
2026-04-26 09:53 41.34165 3.79982 33165 ft 469 kts 190°
2026-04-26 09:54 41.27778 3.78528 33162 ft 469 kts 190°
2026-04-26 09:54 41.21341 3.77064 33168 ft 468 kts 190°
2026-04-26 09:55 41.14960 3.75377 33168 ft 469 kts 196°
2026-04-26 09:55 41.08847 3.72389 33167 ft 467 kts 201°
2026-04-26 09:56 41.02761 3.69232 33170 ft 470 kts 201°
2026-04-26 09:56 40.97698 3.66624 33170 ft 470 kts 201°
2026-04-26 09:57 40.91591 3.63489 33170 ft 468 kts 201°
2026-04-26 09:57 40.85531 3.60384 33173 ft 470 kts 201°
2026-04-26 09:58 40.79438 3.57266 33168 ft 470 kts 201°
2026-04-26 09:58 40.73334 3.54151 33166 ft 469 kts 201°
2026-04-26 09:59 40.70312 3.52610 33021 ft 458 kts 201°
2026-04-26 09:59 40.67371 3.51113 32552 ft 450 kts 201°
2026-04-26 09:59 40.64453 3.49628 31360 ft 449 kts 200°
2026-04-26 09:59 40.61502 3.48127 29800 ft 461 kts 200°
2026-04-26 10:00 40.58492 3.46601 28506 ft 463 kts 200°
2026-04-26 10:00 40.55510 3.45088 27810 ft 453 kts 200°
2026-04-26 10:00 40.52655 3.43640 27942 ft 427 kts 200°
2026-04-26 10:00 40.49862 3.42226 28219 ft 435 kts 200°
2026-04-26 10:01 40.44102 3.39830 27491 ft 433 kts 190°
2026-04-26 10:01 40.41101 3.39398 26264 ft 436 kts 181°
2026-04-26 10:01 40.38064 3.39498 24810 ft 442 kts 176°
2026-04-26 10:02 40.34995 3.39713 23898 ft 440 kts 177°
2026-04-26 10:02 40.31952 3.39913 23018 ft 433 kts 177°
2026-04-26 10:02 40.28973 3.40096 22079 ft 423 kts 177°
2026-04-26 10:02 40.26040 3.40267 21207 ft 418 kts 177°
2026-04-26 10:03 40.23166 3.40432 20534 ft 408 kts 177°
2026-04-26 10:03 40.20395 3.40589 19823 ft 402 kts 177°
2026-04-26 10:03 40.17616 3.40746 19100 ft 396 kts 176°
2026-04-26 10:03 40.14875 3.40901 18337 ft 392 kts 176°
2026-04-26 10:04 40.12134 3.41059 17609 ft 385 kts 176°
2026-04-26 10:04 40.09536 3.41211 17222 ft 372 kts 176°
2026-04-26 10:04 40.06958 3.41362 17173 ft 376 kts 176°
2026-04-26 10:04 40.04341 3.41518 17170 ft 375 kts 176°
2026-04-26 10:05 40.01730 3.41676 17171 ft 375 kts 176°
2026-04-26 10:05 39.99123 3.41837 17163 ft 375 kts 176°
2026-04-26 10:05 39.96513 3.42000 16965 ft 375 kts 176°
2026-04-26 10:05 39.93917 3.42163 16715 ft 373 kts 176°
2026-04-26 10:06 39.91321 3.42328 16458 ft 371 kts 176°
2026-04-26 10:06 39.88748 3.42494 16211 ft 370 kts 175°
2026-04-26 10:06 39.86169 3.42662 15964 ft 369 kts 175°
2026-04-26 10:06 39.83646 3.42828 15805 ft 354 kts 175°
2026-04-26 10:07 39.81259 3.42983 15636 ft 334 kts 175°
2026-04-26 10:07 39.78987 3.43129 15488 ft 320 kts 175°
2026-04-26 10:07 39.76787 3.43270 15151 ft 314 kts 175°
2026-04-26 10:07 39.74603 3.43413 14912 ft 316 kts 175°
2026-04-26 10:08 39.72435 3.43559 14679 ft 315 kts 175°
2026-04-26 10:08 39.70270 3.43707 14529 ft 306 kts 175°
2026-04-26 10:08 39.68182 3.43850 14421 ft 293 kts 175°
2026-04-26 10:08 39.66191 3.43928 14305 ft 280 kts 184°
2026-04-26 10:09 39.64360 3.43228 13882 ft 275 kts 209°
2026-04-26 10:09 39.62958 3.41574 13176 ft 274 kts 236°
2026-04-26 10:09 39.62259 3.39303 12489 ft 272 kts 262°
2026-04-26 10:09 39.62364 3.36890 11840 ft 267 kts 287°
2026-04-26 10:10 39.63030 3.34654 11219 ft 265 kts 293°
2026-04-26 10:10 39.63707 3.32479 10608 ft 262 kts 292°
2026-04-26 10:10 39.64379 3.30293 10032 ft 258 kts 292°
2026-04-26 10:10 39.65034 3.28141 9382 ft 256 kts 292°
2026-04-26 10:11 39.65683 3.25991 8740 ft 254 kts 292°
2026-04-26 10:11 39.66324 3.23861 8123 ft 253 kts 292°
2026-04-26 10:11 39.66959 3.21745 7521 ft 251 kts 292°
2026-04-26 10:11 39.67593 3.19633 6897 ft 250 kts 292°
2026-04-26 10:12 39.68224 3.17530 6317 ft 248 kts 292°
2026-04-26 10:12 39.68851 3.15441 5719 ft 248 kts 292°
2026-04-26 10:12 39.69480 3.13348 5324 ft 250 kts 292°
2026-04-26 10:12 39.70111 3.11245 5004 ft 247 kts 292°
2026-04-26 10:13 39.70528 3.09162 4854 ft 234 kts 269°
2026-04-26 10:13 39.70143 3.07167 4641 ft 227 kts 244°
2026-04-26 10:13 39.69374 3.05400 4531 ft 228 kts 235°
2026-04-26 10:13 39.68514 3.03660 4425 ft 228 kts 237°
2026-04-26 10:14 39.67688 3.01911 4326 ft 228 kts 237°
2026-04-26 10:14 39.66873 3.00192 4147 ft 227 kts 237°
2026-04-26 10:14 39.66046 2.98441 3892 ft 227 kts 237°
2026-04-26 10:14 39.65221 2.96698 3597 ft 226 kts 237°
2026-04-26 10:15 39.64411 2.94974 3373 ft 219 kts 237°
2026-04-26 10:15 39.63643 2.93354 3075 ft 202 kts 237°
2026-04-26 10:15 39.62934 2.91851 2800 ft 190 kts 237°
2026-04-26 10:15 39.62266 2.90429 2548 ft 183 kts 237°
2026-04-26 10:16 39.61597 2.89015 2308 ft 180 kts 237°
2026-04-26 10:16 39.60940 2.87626 2061 ft 182 kts 237°
2026-04-26 10:16 39.60301 2.86267 1819 ft 166 kts 237°
2026-04-26 10:16 39.59746 2.85098 1618 ft 146 kts 236°
2026-04-26 10:17 39.59194 2.83977 1445 ft 147 kts 237°
2026-04-26 10:17 39.58667 2.82862 1259 ft 144 kts 238°
2026-04-26 10:17 39.58167 2.81730 1056 ft 146 kts 238°
2026-04-26 10:17 39.57644 2.80603 875 ft 146 kts 236°
2026-04-26 10:18 39.57099 2.79502 667 ft 140 kts 237°
2026-04-26 10:18 39.56590 2.78404 478 ft 140 kts 238°
2026-04-26 10:18 39.56075 2.77318 274 ft 141 kts 236°
2026-04-26 10:18 39.55572 2.76233 92 ft 141 kts 237°
2026-04-26 10:19 39.55083 2.75211 39 ft 121 kts 236°
2026-04-26 10:19 39.54750 2.74489 38 ft 65 kts 238°
2026-04-26 10:19 39.54570 2.74073 37 ft 47 kts 247°
2026-04-26 10:19 39.54554 2.73961 38 ft 7 kts 277°
2026-04-26 10:20 39.54551 2.73843 38 ft 18 kts 271°
2026-04-26 10:20 39.54551 2.73801 38 ft 3 kts 269°
2026-04-26 10:20 39.54552 2.73756 38 ft 6 kts 271°
2026-04-26 10:20 39.54552 2.73750 38 ft 0 kts 270°
2026-04-26 10:21 39.54559 2.73709 38 ft 10 kts 289°
2026-04-26 10:21 39.54580 2.73702 38 ft 6 kts 21°
2026-04-26 10:22 39.54621 2.73772 38 ft 10 kts 59°
2026-04-26 10:22 39.54662 2.73856 38 ft 15 kts 58°
2026-04-26 10:22 39.54725 2.73992 38 ft 20 kts 58°
2026-04-26 10:22 39.54815 2.74122 38 ft 16 kts 360°
2026-04-26 10:23 39.54894 2.74073 38 ft 15 kts 330°
2026-04-26 10:23 39.54984 2.74003 38 ft 12 kts 329°
2026-04-26 10:23 39.55077 2.73929 38 ft 18 kts 329°
2026-04-26 10:23 39.55174 2.73847 38 ft 14 kts 309°
2026-04-26 10:24 39.55168 2.73787 38 ft 9 kts 250°
2026-04-26 10:24 39.55167 2.73783 36 ft 0 kts 250°
2026-04-26 10:26 39.55167 2.73781 36 ft 1 kts 250°
2026-04-26 10:26 39.55179 2.73733 38 ft 11 kts 291°
2026-04-26 10:26 39.55143 2.73633 38 ft 11 kts 209°
2026-04-26 10:26 39.55093 2.73619 38 ft 2 kts 189°
2026-04-26 10:27 39.55080 2.73617 38 ft 0 kts 189°